| time (UTC) | temp F | wind direction | speed MPH | gust MPH | rain 1hr in | rain 24hr in | rain mn in | humidity % | barometer mb |
| 20260905081553 | 78 | 71 | 0.0 | 0.0 | 0.00 | 0.00 | 0.00 | 79 | 1013.5 |
| 20260905081528 | 78 | 101 | 0.0 | 0.0 | 0.00 | 0.00 | 0.00 | 79 | 1013.8 |
| 20260905080055 | 78 | 71 | 0.0 | 1.0 | 0.00 | 0.00 | 0.00 | 79 | 1013.4 |
| 20260905080030 | 79 | 101 | 0.0 | 2.0 | 0.00 | 0.00 | 0.00 | 79 | 1013.7 |
| 20260905074550 | 78 | 71 | 0.0 | 1.0 | 0.00 | 0.00 | 0.00 | 79 | 1013.3 |
| 20260905074530 | 79 | 102 | 0.0 | 1.0 | 0.00 | 0.00 | 0.00 | 77 | 1013.7 |
| 20260905073055 | 78 | 71 | 0.0 | 0.0 | 0.00 | 0.00 | 0.00 | 81 | 1013.2 |
| 20260905073023 | 79 | 102 | 0.0 | 0.0 | 0.00 | 0.00 | 0.00 | 79 | 1013.7 |
| 20260905071550 | 78 | 72 | 0.0 | 0.0 | 0.00 | 0.00 | 0.00 | 78 | 1013.3 |
| 20260905071519 | 79 | 102 | 0.0 | 0.0 | 0.00 | 0.00 | 0.00 | 78 | 1013.7 |
| 20260905070047 | 79 | 72 | 0.0 | 0.0 | 0.00 | 0.00 | 0.00 | 77 | 1013.4 |
| 20260905070036 | 79 | 102 | 0.0 | 0.0 | 0.00 | 0.00 | 0.00 | 77 | 1013.7 |
| 20260905064544 | 79 | 72 | 0.0 | 0.0 | 0.00 | 0.00 | 0.00 | 75 | 1013.4 |
| 20260905064530 | 80 | 102 | 0.0 | 0.0 | 0.00 | 0.00 | 0.00 | 75 | 1013.8 |
| 20260905063044 | 80 | 71 | 0.0 | 0.0 | 0.00 | 0.00 | 0.00 | 74 | 1013.5 |
| 20260905063028 | 80 | 101 | 0.0 | 0.0 | 0.00 | 0.00 | 0.00 | 74 | 1013.9 |
| 20260905061609 | 80 | 72 | 0.0 | 0.0 | 0.00 | 0.00 | 0.00 | 77 | 1013.4 |
| 20260905061529 | 81 | 101 | 0.0 | 0.0 | 0.00 | 0.00 | 0.00 | 77 | 1013.8 |
| 20260905060042 | 81 | 71 | 0.0 | 0.0 | 0.00 | 0.00 | 0.00 | 76 | 1013.4 |
| 20260905060004 | 81 | 101 | 0.0 | 0.0 | 0.00 | 0.00 | 0.00 | 75 | 1013.9 |
| 20260905054540 | 80 | 71 | 0.0 | 0.0 | 0.00 | 0.00 | 0.00 | 76 | 1013.5 |
| 20260905054507 | 80 | 102 | 0.0 | 0.0 | 0.00 | 0.00 | 0.00 | 75 | 1014.0 |
| 20260905053038 | 79 | 72 | 0.0 | 0.0 | 0.00 | 0.00 | 0.00 | 78 | 1013.6 |
| 20260905053004 | 80 | 101 | 0.0 | 0.0 | 0.00 | 0.00 | 0.00 | 78 | 1014.0 |
| 20260905051539 | 79 | 72 | 0.0 | 0.0 | 0.00 | 0.00 | 0.00 | 78 | 1013.6 |
| 20260905051516 | 80 | 101 | 0.0 | 0.0 | 0.00 | 0.00 | 0.00 | 77 | 1014.1 |
| 20260905050036 | 80 | 72 | 0.0 | 0.0 | 0.00 | 0.00 | 0.00 | 75 | 1013.6 |
| 20260905050013 | 80 | 102 | 0.0 | 0.0 | 0.00 | 0.00 | 0.00 | 75 | 1014.0 |
| 20260905044535 | 80 | 71 | 0.0 | 1.0 | 0.00 | 0.00 | 0.00 | 77 | 1013.7 |
| 20260905044508 | 80 | 102 | 0.0 | 1.0 | 0.00 | 0.00 | 0.00 | 76 | 1014.1 |
| 20260905043032 | 80 | 72 | 0.0 | 0.0 | 0.00 | 0.00 | 0.00 | 75 | 1013.6 |
| 20260905043004 | 81 | 102 | 0.0 | 0.0 | 0.00 | 0.00 | 0.00 | 74 | 1014.1 |
| 20260905041532 | 81 | 72 | 0.0 | 0.0 | 0.00 | 0.00 | 0.00 | 71 | 1013.5 |
| 20260905041504 | 81 | 102 | 0.0 | 0.0 | 0.00 | 0.00 | 0.00 | 70 | 1014.0 |
| 20260905040035 | 81 | 72 | 0.0 | 0.0 | 0.00 | 0.00 | 0.00 | 70 | 1013.7 |
| 20260905040024 | 81 | 102 | 0.0 | 0.0 | 0.00 | 0.00 | 0.00 | 70 | 1014.2 |
| 20260905034530 | 82 | 72 | 0.0 | 0.0 | 0.00 | 0.00 | 0.00 | 69 | 1013.6 |
| 20260905034518 | 82 | 102 | 0.0 | 0.0 | 0.00 | 0.00 | 0.00 | 68 | 1014.1 |
| 20260905033033 | 82 | 72 | 0.0 | 0.0 | 0.00 | 0.00 | 0.00 | 68 | 1013.7 |
| 20260905033017 | 82 | 102 | 0.0 | 0.0 | 0.00 | 0.00 | 0.00 | 67 | 1014.2 |
| 20260905031530 | 83 | 72 | 0.0 | 0.0 | 0.00 | 0.00 | 0.00 | 67 | 1013.7 |
| 20260905031511 | 83 | 102 | 0.0 | 0.0 | 0.00 | 0.00 | 0.00 | 66 | 1014.1 |
| 20260905030037 | 83 | 72 | 0.0 | 0.0 | 0.00 | 0.00 | 0.00 | 65 | 1013.6 |
| 20260905030012 | 84 | 102 | 0.0 | 0.0 | 0.00 | 0.00 | 0.00 | 65 | 1013.9 |
| 20260905024529 | 84 | 72 | 0.0 | 0.0 | 0.00 | 0.00 | 0.00 | 64 | 1013.4 |
| 20260905024503 | 84 | 102 | 0.0 | 0.0 | 0.00 | 0.00 | 0.00 | 64 | 1013.8 |
| 20260905023032 | 84 | 72 | 0.0 | 0.0 | 0.00 | 0.00 | 0.00 | 64 | 1013.2 |
| 20260905023027 | 84 | 102 | 0.0 | 0.0 | 0.00 | 0.00 | 0.00 | 63 | 1013.7 |
| 20260905021529 | 85 | 72 | 0.0 | 0.0 | 0.00 | 0.00 | 0.00 | 63 | 1013.3 |
| 20260905021524 | 85 | 102 | 0.0 | 0.0 | 0.00 | 0.00 | 0.00 | 62 | 1013.6 |
| 20260905020030 | 86 | 72 | 0.0 | 0.0 | 0.00 | 0.00 | 0.00 | 63 | 1013.2 |
| 20260905020016 | 86 | 102 | 0.0 | 0.0 | 0.00 | 0.00 | 0.00 | 62 | 1013.6 |
| 20260905014526 | 86 | 72 | 0.0 | 0.0 | 0.00 | 0.00 | 0.00 | 60 | 1013.0 |
| 20260905014514 | 86 | 102 | 0.0 | 0.0 | 0.00 | 0.00 | 0.00 | 60 | 1013.5 |
| 20260905013030 | 87 | 72 | 0.0 | 0.0 | 0.00 | 0.00 | 0.00 | 62 | 1013.0 |
| 20260905013014 | 87 | 102 | 0.0 | 0.0 | 0.00 | 0.00 | 0.00 | 61 | 1013.4 |
| 20260905011525 | 87 | 72 | 0.0 | 0.0 | 0.00 | 0.00 | 0.00 | 63 | 1012.7 |
| 20260905011508 | 87 | 102 | 0.0 | 0.0 | 0.00 | 0.00 | 0.00 | 62 | 1013.2 |
| 20260905010036 | 88 | 102 | 0.0 | 0.0 | 0.00 | 0.00 | 0.00 | 60 | 1013.1 |
| 20260905010025 | 88 | 72 | 0.0 | 0.0 | 0.00 | 0.00 | 0.00 | 60 | 1012.7 |
| 20260905004531 | 89 | 71 | 0.0 | 0.0 | 0.00 | 0.00 | 0.00 | 58 | 1012.6 |
| 20260905004527 | 90 | 101 | 0.0 | 0.0 | 0.00 | 0.00 | 0.00 | 57 | 1013.1 |
| 20260905003029 | 92 | 70 | 0.0 | 0.0 | 0.00 | 0.00 | 0.00 | 54 | 1012.5 |
| 20260905003022 | 92 | 101 | 0.0 | 0.0 | 0.00 | 0.00 | 0.00 | 53 | 1012.9 |
| 20260905001623 | 93 | 71 | 0.0 | 0.0 | 0.00 | 0.00 | 0.00 | 50 | 1012.5 |
| 20260905001514 | 93 | 82 | 0.0 | 0.0 | 0.00 | 0.00 | 0.00 | 50 | 1012.9 |
| 20260905000027 | 94 | 52 | 0.0 | 1.0 | 0.00 | 0.00 | 0.00 | 49 | 1012.4 |
| 20260905000012 | 94 | 82 | 0.0 | 1.0 | 0.00 | 0.00 | 0.00 | 49 | 1012.7 |
| 20260904234543 | 94 | 51 | 0.0 | 1.0 | 0.00 | 0.00 | 0.00 | 48 | 1012.4 |
| 20260904234509 | 94 | 81 | 0.0 | 1.0 | 0.00 | 0.00 | 0.00 | 47 | 1012.7 |
| 20260904233109 | 94 | 52 | 0.0 | 1.0 | 0.00 | 0.00 | 0.00 | 47 | 1012.2 |
| 20260904233033 | 95 | 82 | 0.0 | 1.0 | 0.00 | 0.00 | 0.00 | 47 | 1012.6 |
| 20260904231628 | 94 | 22 | 0.0 | 1.0 | 0.00 | 0.00 | 0.00 | 47 | 1012.1 |
| 20260904231527 | 95 | 52 | 0.0 | 1.0 | 0.00 | 0.00 | 0.00 | 46 | 1012.5 |
| 20260904230054 | 94 | 45 | 0.0 | 2.0 | 0.00 | 0.00 | 0.00 | 48 | 1012.1 |
| 20260904230026 | 95 | 75 | 0.0 | 2.0 | 0.00 | 0.00 | 0.00 | 46 | 1012.5 |
| 20260904224616 | 95 | 53 | 0.0 | 2.0 | 0.00 | 0.00 | 0.00 | 46 | 1012.1 |
| 20260904224521 | 95 | 120 | 0.0 | 2.0 | 0.00 | 0.00 | 0.00 | 46 | 1012.5 |
| 20260904223014 | 95 | 21 | 0.0 | 4.0 | 0.00 | 0.00 | 0.00 | 46 | 1012.6 |
| 20260904223012 | 95 | 351 | 0.0 | 2.0 | 0.00 | 0.00 | 0.00 | 46 | 1012.2 |
| 20260904221511 | 95 | 29 | 0.0 | 8.0 | 0.00 | 0.00 | 0.00 | 47 | 1012.1 |
| 20260904220031 | 96 | 21 | 0.0 | 3.0 | 0.00 | 0.00 | 0.00 | 45 | 1012.7 |
| 20260904220010 | 95 | 351 | 0.0 | 3.0 | 0.00 | 0.00 | 0.00 | 46 | 1012.3 |
| 20260904214527 | 96 | 66 | 0.0 | 2.0 | 0.00 | 0.00 | 0.00 | 46 | 1012.7 |
| 20260904214509 | 95 | 351 | 0.0 | 2.0 | 0.00 | 0.00 | 0.00 | 47 | 1012.3 |
| 20260904213025 | 96 | 89 | 0.0 | 0.0 | 0.00 | 0.00 | 0.00 | 44 | 1012.7 |
| 20260904213020 | 95 | 60 | 0.0 | 0.0 | 0.00 | 0.00 | 0.00 | 45 | 1012.5 |
| 20260904211524 | 96 | 34 | 0.0 | 2.0 | 0.00 | 0.00 | 0.00 | 41 | 1012.9 |
| 20260904211506 | 96 | 5 | 0.0 | 1.0 | 0.00 | 0.00 | 0.00 | 41 | 1012.6 |
| 20260904210023 | 96 | 107 | 0.0 | 3.0 | 0.00 | 0.00 | 0.00 | 45 | 1013.1 |
| 20260904210003 | 95 | 76 | 0.0 | 3.0 | 0.00 | 0.00 | 0.00 | 45 | 1012.7 |
| 20260904204534 | 95 | 169 | 0.0 | 3.0 | 0.00 | 0.00 | 0.00 | 44 | 1013.4 |
| 20260904204502 | 95 | 139 | 0.0 | 3.0 | 0.00 | 0.00 | 0.00 | 44 | 1013.1 |
| 20260904203104 | 94 | 86 | 0.0 | 4.0 | 0.00 | 0.00 | 0.00 | 48 | 1013.2 |
| 20260904203042 | 95 | 101 | 0.0 | 4.0 | 0.00 | 0.00 | 0.00 | 46 | 1013.6 |
| 20260904201559 | 94 | 55 | 0.0 | 1.0 | 0.00 | 0.00 | 0.00 | 47 | 1013.3 |
| 20260904201530 | 95 | 85 | 0.0 | 1.0 | 0.00 | 0.00 | 0.00 | 45 | 1013.7 |
| 20260904200057 | 94 | 55 | 0.0 | 2.0 | 0.00 | 0.00 | 0.00 | 50 | 1013.4 |
| 20260904200045 | 94 | 85 | 0.0 | 2.0 | 0.00 | 0.00 | 0.00 | 50 | 1013.8 |
| 20260904194554 | 94 | 49 | 0.0 | 2.0 | 0.00 | 0.00 | 0.00 | 48 | 1013.7 |
| 20260904194527 | 94 | 80 | 0.0 | 2.0 | 0.00 | 0.00 | 0.00 | 47 | 1014.0 |
| 20260904193112 | 93 | 51 | 0.0 | 1.0 | 0.00 | 0.00 | 0.00 | 52 | 1013.8 |
| 20260904193018 | 94 | 81 | 0.0 | 1.0 | 0.00 | 0.00 | 0.00 | 50 | 1014.2 |
| 20260904191555 | 95 | 64 | 0.0 | 1.0 | 0.00 | 0.00 | 0.00 | 49 | 1014.0 |
| 20260904191536 | 95 | 92 | 0.0 | 1.0 | 0.00 | 0.00 | 0.00 | 48 | 1014.3 |
| 20260904190049 | 95 | 360 | 0.0 | 2.0 | 0.00 | 0.00 | 0.00 | 51 | 1014.2 |
| 20260904190030 | 95 | 86 | 0.0 | 2.0 | 0.00 | 0.00 | 0.00 | 50 | 1014.6 |
| 20260904184547 | 94 | 102 | 0.0 | 1.0 | 0.00 | 0.00 | 0.00 | 51 | 1014.5 |
| 20260904184536 | 95 | 132 | 0.0 | 1.0 | 0.00 | 0.00 | 0.00 | 50 | 1014.7 |
| 20260904183045 | 94 | 17 | 0.0 | 1.0 | 0.00 | 0.00 | 0.00 | 52 | 1014.7 |
| 20260904183030 | 94 | 47 | 0.0 | 1.0 | 0.00 | 0.00 | 0.00 | 52 | 1014.9 |
| 20260904181543 | 93 | 17 | 0.0 | 1.0 | 0.00 | 0.00 | 0.00 | 54 | 1014.9 |
| 20260904181527 | 94 | 47 | 0.0 | 1.0 | 0.00 | 0.00 | 0.00 | 54 | 1015.2 |
| 20260904180039 | 92 | 88 | 0.0 | 1.0 | 0.00 | 0.00 | 0.00 | 54 | 1015.0 |
| 20260904180036 | 93 | 119 | 0.0 | 1.0 | 0.00 | 0.00 | 0.00 | 53 | 1015.2 |
| 20260904174538 | 91 | 61 | 1.0 | 4.0 | 0.00 | 0.00 | 0.00 | 57 | 1015.1 |
| 20260904174517 | 91 | 91 | 1.0 | 4.0 | 0.00 | 0.00 | 0.00 | 56 | 1015.3 |
| 20260904173047 | 90 | 82 | 0.0 | 1.0 | 0.00 | 0.00 | 0.00 | 60 | 1015.4 |
| 20260904173017 | 90 | 112 | 0.0 | 1.0 | 0.00 | 0.00 | 0.00 | 60 | 1015.8 |
| 20260904171531 | 89 | 41 | 0.0 | 2.0 | 0.00 | 0.00 | 0.00 | 60 | 1015.5 |
| 20260904171509 | 90 | 71 | 0.0 | 2.0 | 0.00 | 0.00 | 0.00 | 60 | 1015.8 |
| 20260904170030 | 89 | 41 | 0.0 | 1.0 | 0.00 | 0.00 | 0.00 | 61 | 1015.7 |
| 20260904170008 | 90 | 71 | 1.0 | 1.0 | 0.00 | 0.00 | 0.00 | 59 | 1016.1 |
| 20260904164528 | 89 | 51 | 0.0 | 0.0 | 0.00 | 0.00 | 0.00 | 63 | 1015.8 |
| 20260904163027 | 88 | 81 | 0.0 | 0.0 | 0.00 | 0.00 | 0.00 | 64 | 1016.2 |
| 20260904163025 | 88 | 51 | 0.0 | 0.0 | 0.00 | 0.00 | 0.00 | 64 | 1015.8 |
| 20260904161523 | 87 | 51 | 0.0 | 0.0 | 0.00 | 0.00 | 0.00 | 63 | 1015.8 |
| 20260904160019 | 86 | 50 | 0.0 | 0.0 | 0.00 | 0.00 | 0.00 | 68 | 1015.8 |
| 20260904160016 | 87 | 80 | 0.0 | 0.0 | 0.00 | 0.00 | 0.00 | 68 | 1016.2 |
| 20260904154516 | 85 | 50 | 0.0 | 0.0 | 0.00 | 0.00 | 0.00 | 70 | 1015.9 |
| 20260904154513 | 86 | 79 | 0.0 | 0.0 | 0.00 | 0.00 | 0.00 | 70 | 1016.2 |
| 20260904153014 | 85 | 62 | 0.0 | 0.0 | 0.00 | 0.00 | 0.00 | 72 | 1016.3 |
| 20260904151530 | 84 | 62 | 0.0 | 0.0 | 0.00 | 0.00 | 0.00 | 73 | 1016.2 |
| 20260904151509 | 84 | 32 | 0.0 | 0.0 | 0.00 | 0.00 | 0.00 | 73 | 1015.9 |
| 20260904150031 | 83 | 62 | 0.0 | 0.0 | 0.00 | 0.00 | 0.00 | 74 | 1016.2 |
| 20260904150007 | 83 | 32 | 0.0 | 0.0 | 0.00 | 0.00 | 0.00 | 74 | 1015.8 |
| 20260904144525 | 82 | 62 | 0.0 | 0.0 | 0.00 | 0.00 | 0.00 | 78 | 1016.3 |
| 20260904144502 | 81 | 32 | 0.0 | 0.0 | 0.00 | 0.00 | 0.00 | 78 | 1015.9 |
| 20260904143106 | 80 | 32 | 0.0 | 0.0 | 0.00 | 0.00 | 0.00 | 80 | 1015.8 |
| 20260904143029 | 81 | 62 | 0.0 | 0.0 | 0.00 | 0.00 | 0.00 | 80 | 1016.3 |
| 20260904141603 | 79 | 32 | 0.0 | 0.0 | 0.00 | 0.00 | 0.00 | 83 | 1015.8 |
| 20260904141514 | 80 | 62 | 0.0 | 0.0 | 0.00 | 0.00 | 0.00 | 83 | 1016.1 |
| 20260904140056 | 79 | 32 | 0.0 | 0.0 | 0.00 | 0.00 | 0.00 | 84 | 1015.9 |
| 20260904140010 | 79 | 62 | 0.0 | 0.0 | 0.00 | 0.00 | 0.00 | 84 | 1016.2 |
| 20260904134557 | 78 | 32 | 0.0 | 0.0 | 0.00 | 0.00 | 0.00 | 85 | 1015.9 |
| 20260904134539 | 78 | 62 | 0.0 | 0.0 | 0.00 | 0.00 | 0.00 | 84 | 1016.1 |
| 20260904133059 | 77 | 32 | 0.0 | 0.0 | 0.00 | 0.00 | 0.00 | 86 | 1015.8 |
| 20260904133035 | 77 | 62 | 0.0 | 0.0 | 0.00 | 0.00 | 0.00 | 86 | 1016.1 |
| 20260904131550 | 76 | 32 | 0.0 | 0.0 | 0.00 | 0.00 | 0.00 | 88 | 1015.6 |
| 20260904131526 | 76 | 62 | 0.0 | 0.0 | 0.00 | 0.00 | 0.00 | 88 | 1015.9 |
| 20260904130046 | 75 | 32 | 0.0 | 0.0 | 0.00 | 0.00 | 0.00 | 90 | 1015.6 |
| 20260904130026 | 76 | 62 | 0.0 | 0.0 | 0.00 | 0.00 | 0.00 | 90 | 1015.9 |
| 20260904124604 | 75 | 32 | 0.0 | 0.0 | 0.00 | 0.00 | 0.00 | 90 | 1015.6 |
| 20260904124521 | 75 | 62 | 0.0 | 0.0 | 0.00 | 0.00 | 0.00 | 90 | 1015.8 |
| 20260904123054 | 74 | 32 | 0.0 | 1.0 | 0.00 | 0.00 | 0.00 | 90 | 1015.3 |
| 20260904123016 | 75 | 62 | 0.0 | 1.0 | 0.00 | 0.00 | 0.00 | 90 | 1015.7 |
| 20260904121553 | 74 | 22 | 0.0 | 1.0 | 0.00 | 0.00 | 0.00 | 91 | 1015.2 |
| 20260904121529 | 74 | 52 | 0.0 | 1.0 | 0.00 | 0.00 | 0.00 | 90 | 1015.4 |
| 20260904120057 | 73 | 21 | 0.0 | 0.0 | 0.00 | 0.00 | 0.00 | 90 | 1015.0 |
| 20260904120034 | 74 | 52 | 0.0 | 0.0 | 0.00 | 0.00 | 0.00 | 90 | 1015.3 |
| 20260904114553 | 73 | 22 | 0.0 | 0.0 | 0.00 | 0.00 | 0.00 | 89 | 1014.9 |
| 20260904114529 | 74 | 52 | 0.0 | 0.0 | 0.00 | 0.00 | 0.00 | 89 | 1015.2 |
| 20260904113049 | 74 | 22 | 0.0 | 1.0 | 0.00 | 0.00 | 0.00 | 90 | 1015.1 |
| 20260904113027 | 75 | 52 | 0.0 | 2.0 | 0.00 | 0.00 | 0.00 | 90 | 1015.2 |
| 20260904111544 | 75 | 22 | 0.0 | 0.0 | 0.00 | 0.00 | 0.00 | 88 | 1014.9 |
| 20260904111524 | 75 | 51 | 0.0 | 0.0 | 0.00 | 0.00 | 0.00 | 87 | 1015.1 |
| 20260904110044 | 75 | 21 | 0.0 | 3.0 | 0.00 | 0.00 | 0.00 | 87 | 1014.8 |
| 20260904110019 | 75 | 51 | 1.0 | 3.0 | 0.00 | 0.00 | 0.00 | 86 | 1015.1 |
| 20260904104613 | 75 | 26 | 0.0 | 1.0 | 0.00 | 0.00 | 0.00 | 87 | 1014.8 |
| 20260904104531 | 75 | 56 | 0.0 | 1.0 | 0.00 | 0.00 | 0.00 | 87 | 1015.0 |
| 20260904103130 | 75 | 32 | 0.0 | 2.0 | 0.00 | 0.00 | 0.00 | 86 | 1014.7 |
| 20260904103031 | 76 | 64 | 0.0 | 1.0 | 0.00 | 0.00 | 0.00 | 86 | 1015.0 |
| 20260904101551 | 76 | 34 | 0.0 | 1.0 | 0.00 | 0.00 | 0.00 | 86 | 1014.7 |
| 20260904101530 | 76 | 64 | 0.0 | 1.0 | 0.00 | 0.00 | 0.00 | 87 | 1015.0 |
| 20260904100056 | 76 | 32 | 0.0 | 1.0 | 0.00 | 0.00 | 0.00 | 85 | 1014.6 |
| 20260904100027 | 76 | 62 | 0.0 | 1.0 | 0.00 | 0.00 | 0.00 | 85 | 1014.9 |
| 20260904094548 | 76 | 31 | 0.0 | 1.0 | 0.00 | 0.00 | 0.00 | 86 | 1014.4 |
| 20260904094537 | 76 | 61 | 0.0 | 1.0 | 0.00 | 0.00 | 0.00 | 85 | 1014.7 |
| 20260904093053 | 76 | 32 | 0.0 | 1.0 | 0.00 | 0.00 | 0.00 | 86 | 1014.4 |
| 20260904093036 | 76 | 62 | 0.0 | 1.0 | 0.00 | 0.00 | 0.00 | 85 | 1014.7 |
| 20260904091553 | 76 | 31 | 0.0 | 0.0 | 0.00 | 0.00 | 0.00 | 85 | 1014.4 |
| 20260904091533 | 76 | 62 | 0.0 | 0.0 | 0.00 | 0.00 | 0.00 | 85 | 1014.6 |
| 20260904090044 | 76 | 30 | 0.0 | 0.0 | 0.00 | 0.00 | 0.00 | 85 | 1014.2 |
| 20260904090030 | 76 | 60 | 0.0 | 1.0 | 0.00 | 0.00 | 0.00 | 84 | 1014.5 |
| 20260904084545 | 76 | 30 | 0.0 | 0.0 | 0.00 | 0.00 | 0.00 | 84 | 1014.1 |
| 20260904084511 | 76 | 60 | 0.0 | 0.0 | 0.00 | 0.00 | 0.00 | 84 | 1014.4 |
| 20260904083042 | 76 | 30 | 0.0 | 0.0 | 0.00 | 0.00 | 0.00 | 84 | 1014.1 |
| 20260904083007 | 77 | 60 | 0.0 | 0.0 | 0.00 | 0.00 | 0.00 | 84 | 1014.5 |